Location: Arbon
(43.0005°N, 0.7472°E)
Time: 22:50:07
(UTC+00:00)

Explorer 7 - Pass Details

Date: 28 November 2020
Orbit: 484 x 678 km, 50.3° (Epoch: 26 January)

Event Time Altitude Azimuth Distance (km) Brightness Sun altitude
Rises 02:47:52 0° 249° (WSW) 2,916 - -46.4°
Reaches altitude 10° 02:50:16 10° 252° (WSW) 1,980 - -46.0°
Maximum altitude 02:54:46 63° 334° (NNW) 661 - -45.2°
Drops below altitude 10° 02:59:00 10° 56° (ENE) 1,863 - -44.4°
Exits shadow 03:00:53 - 60° (ENE) 2,600 11.0 -44.1°
Sets 03:01:12 0° 60° (ENE) 2,727 11.1 -44.0°
